Weather History for SARP - March, 2014

Change the Weather History Date:

Sunday, March 9, 2014

  Actual Average Record
Temperature  
Mean Temperature 78 °F -  
Max Temperature 92 °F 85 °F 98 °F (2012)
Min Temperature 65 °F 65 °F 65 °F (2014)
Cooling Degree Days 14    
Growing Degree Days 28 (Base 50)    
Moisture  
Dew Point 59 °F    
Average Humidity 52    
Maximum Humidity 83    
Minimum Humidity 19    
Precipitation  
Precipitation 0.00 in 0.19 in - ()
Sea Level Pressure  
Sea Level Pressure 29.83 in    
Wind  
Wind Speed 5 mph ()    
Max Wind Speed 12 mph    
Max Gust Speed -    
Visibility 12.0 miles    
Events      
Averages and records for this station are not official NWS values.
T = Trace of Precipitation, MM = Missing Value Source: Averaged Metar Reports

Daily Weather History Graph

Daily Weather History Graph

Search for Another Location

Airport or City:

Trip Planner

Search our weather history database for the weather conditions in past years. The results will help you decide how hot, cold, wet, or windy it might be!

Date:

Astronomy

Mar. 09, 2014 Rise Set
Actual Time 6:41 AM ART 7:06 PM ART
Civil Twilight 6:17 AM ART 7:30 PM ART
Nautical Twilight 5:50 AM ART 7:57 PM ART
Astronomical Twilight 5:22 AM ART 8:25 PM ART
Moon 2:23 PM ART (3/9) 12:33 AM ART (3/9)
Length of Visible Light 13h 12m
Length of Day
12h 25m
First Quarter, 60% of the Moon is Illuminated
Mar 9
First Quarter
Mar 16
Full
Mar 23
Last Quarter
Mar 30
New
Apr 7
First Quarter

Hourly Weather History & Observations

Time (ART) Temp. Heat Index Dew Point Humidity Pressure Visibility Wind Dir Wind Speed Gust Speed Precip Events Conditions
12:00 AM 72 °F - 57 °F 49% 29.86 in 12 mi South 5.8 mph - -  
12:00 AM 71.6 °F - 57.2 °F 60% 29.89 in - South 5.8 mph - N/A   Clear
1:00 AM 69.8 °F - 57.2 °F 64% 29.89 in - South 4.6 mph - N/A   Clear
2:00 AM 69.8 °F - 57.2 °F 64% 29.86 in - South 4.6 mph - N/A   Clear
3:00 AM 68 °F - 58 °F 63% 29.82 in 12 mi SE 4.6 mph - -  
3:00 AM 68.0 °F - 59.0 °F 73% 29.86 in - SE 4.6 mph - N/A   Clear
4:00 AM 68.0 °F - 57.2 °F 68% 29.86 in - SE 4.6 mph - N/A   Clear
5:00 AM 66.2 °F - 59.0 °F 78% 29.86 in - SE 3.5 mph - N/A   Clear
6:00 AM 66 °F - 59 °F 70% 29.81 in 12 mi SE 4.6 mph - -  
6:00 AM 66.2 °F - 59.0 °F 78% 29.86 in - SE 4.6 mph - N/A   Clear
7:00 AM 64.4 °F - 59.0 °F 83% 29.89 in - SE 3.5 mph - N/A   Clear
8:00 AM 68.0 °F - 60.8 °F 78% 29.89 in - SE 3.5 mph - N/A   Clear
9:00 AM 73 °F - 64 °F 67% 29.87 in 12 mi SE 3.5 mph - -  
9:00 AM 73.4 °F - 64.4 °F 73% 29.89 in - SE 3.5 mph - N/A   Clear
10:00 AM 77 °F - 64 °F 55% 29.86 in 12 mi East 5.8 mph - -  
10:00 AM 77.0 °F - 64.4 °F 65% 29.89 in - East 5.8 mph - N/A   Clear
11:00 AM 82.4 °F 83.4 °F 62.6 °F 51% 29.89 in - East 5.8 mph - N/A   Clear
12:00 PM 88 °F - 60 °F 28% 29.82 in 12 mi East 4.6 mph - -  
12:00 PM 87.8 °F 87.1 °F 59.0 °F 38% 29.86 in - East 4.6 mph - N/A   Clear
1:00 PM 87.8 °F 86.5 °F 57.2 °F 35% 29.83 in - East 11.5 mph - N/A   Clear
2:00 PM 91.4 °F 89.9 °F 57.2 °F 31% 29.83 in - North 8.1 mph - N/A   Clear
3:00 PM 91 °F - 59 °F 24% 29.76 in 12 mi North 8.1 mph - -   Clear
3:00 PM 91.4 °F 90.7 °F 59.0 °F 34% 29.80 in - North 8.1 mph - N/A   Clear
4:00 PM 93.2 °F 90.8 °F 53.6 °F 26% 29.77 in - ENE 9.2 mph - N/A   Clear
5:00 PM 91.4 °F 89.1 °F 53.6 °F 28% 29.77 in - North 3.5 mph - N/A   Clear
6:00 PM 92 °F - 55 °F 19% 29.72 in 12 mi North 3.5 mph - -   Clear
6:00 PM 91.4 °F 89.4 °F 55.4 °F 29% 29.77 in - North 3.5 mph - N/A   Clear
7:00 PM 87.8 °F 87.1 °F 59.0 °F 38% 29.77 in - North 2.3 mph - N/A   Clear
8:00 PM 84.2 °F 83.5 °F 57.2 °F 40% 29.77 in - West 4.6 mph - N/A   Clear
9:00 PM 83 °F - 62 °F 40% 29.74 in 12 mi West 4.6 mph - -   Scattered Clouds
9:00 PM 82.4 °F 83.4 °F 62.6 °F 51% 29.77 in - West 4.6 mph - N/A   Clear
10:00 PM 82.4 °F 83.4 °F 62.6 °F 51% 29.80 in - West 2.3 mph - N/A   Clear
11:00 PM 82.4 °F 83.4 °F 62.6 °F 51% 29.83 in - SW 2.3 mph - N/A   Clear